Flag for Chile Weather past 2 weeks in Temuco, Chile

Now
52 °F

Clear.


Feels Like: 48 °F
Forecast: 38 / 61 °F
Wind: 12 mph from Southwest

Location: Concepcion Airport

Current Time: Sep 16, 2014 at 12:58:58 AM

Latest Report: Sep 16, 2014 at 12:00 AM


Visibility: 10 mi

Pressure: 29.98 "Hg

Humidity: 88%

Dew point: 48 °F

Location of TemucoLocation

Historic Weather in Temuco — Graph

°F

Temuco temperature yesterday

Maximum temperature yesterday: 66 °F (at 5:00 PM)
Minimum temperature yesterday: 45 °F (at 2:00 AM)
Average temperature yesterday: 54 °F

Past Weeks' High & Low Weather Summary

 TemperatureHumidityPressure
High66 °F (Sep 15, 5:00 PM)100% (Sep 1, 8:00 AM)30.36 "Hg (Sep 1, 8:00 AM)
Low37 °F (Sep 9, 7:00 AM)48% (Sep 11, 1:00 PM)29.71 "Hg (Sep 1, 2:00 AM)
Average53 °F84%30.04 "Hg
* Reported Aug 31 11:00 PM — Midnight between Sep 15 and Sep 16, Temuco, Weather by CustomWeather, © 2014

Note: Actual official high and low records may vary slightly from our data, if they occured in-between our weather recording intervals... More about our weather records

Advertising

Temuco weather history for previous 24 hours

 ConditionsComfort  
Time TempWeatherWind HumidityBarometerVisibility
12:00 AM
Sep 16
52 °FClear.12 mph88%29.98 "Hg10 mi
11:00 PM
Sep 15
52 °FClear.12 mph88%29.98 "Hg10 mi
10:00 PM54 °FClear.13 mph82%29.98 "Hg10 mi
9:00 PM55 °FClear.15 mph82%29.95 "Hg10 mi
8:00 PM57 °FClear.16 mph77%29.95 "Hg10 mi
7:00 PM61 °FClear.13 mph68%29.92 "Hg10 mi
6:00 PM63 °FSunny.14 mph68%29.92 "Hg10 mi
5:00 PM66 °FSunny.10 mph60%29.92 "Hg10 mi
4:00 PM64 °FSunny.15 mph64%29.95 "Hg10 mi
3:00 PM63 °FSunny.15 mph59%29.98 "Hg10 mi
2:00 PM63 °FSunny.14 mph56%29.98 "Hg10 mi
1:00 PM61 °FSunny.14 mph63%30.01 "Hg10 mi
12:00 PM61 °FPassing clouds.7 mph59%30.04 "HgN/A
11:00 AM54 °FSunny.8 mph77%30.07 "Hg10 mi
10:00 AM50 °FPassing clouds.7 mph82%30.07 "HgN/A
9:00 AM48 °FSunny.8 mph82%30.09 "Hg10 mi
8:00 AM46 °FSunny.7 mph87%30.09 "Hg10 mi
7:00 AM48 °FSunny.8 mph87%30.09 "Hg10 mi
6:00 AM48 °FClear.7 mph87%30.12 "Hg10 mi
5:00 AM48 °FClear.6 mph87%30.12 "Hg10 mi
4:00 AM48 °FClear.7 mph87%30.15 "Hg10 mi
3:00 AM48 °FClear.6 mph94%30.18 "Hg10 mi
2:00 AM45 °FClear.6 mph93%30.21 "Hg10 mi
1:00 AM46 °FClear.5 mph93%30.24 "Hg10 mi
12:00 AM48 °FClear.5 mph94%30.24 "Hg10 mi
Weather by CustomWeather, © 2014

See weather overviewHow to use our weather pages